sat.trackr.live / text

‹ back to catalog

STARLINK-4060

NORAD 53267 · 2022-086AB

PAYLOAD ACTIVE UNKNOWN

§ Identity

Operator
Country
US
Launch date
2022-07-24
Launch site
AFETR
Launch vehicle
Mass (kg)
RCS (m²)

Purposes: comms

External: N2YO · Heavens-Above · Gunter

§ Orbital elements

Epoch: 2026-05-24T21:26:02.817888Z

Period
95.44 min
Inclination
53.2134°
Eccentricity
0.0001268
Mean motion
15.08827410 rev/d
Perigee alt
538.9 km
Apogee alt
540.7 km
Semi-major
6,917.9 km
B*
-2.0496e-6
RAAN
212.0337°
Arg perigee
93.0555°
Mean anomaly
267.0583°
Rev number
21,257

§ Raw data

STARLINK-40601 53267U 22086AB  26144.89308817 -.00000320  00000+0 -20496-5 0  99942 53267  53.2134 212.0337 0001268  93.0555 267.0583 15.08827410212579

JSON: /api/v1/satellites/53267 · /tle

For live sub-satellite position, see the globe view (requires WebGL).

§ Visibility from observer

Set your observer location to see the next 7 days of passes ≥ 10°. The values pass through the URL so the page stays shareable.

No JS? Fill the form by hand. The geolocation button needs JavaScript.